Regional Weather Roundup
Issued by NWS

Home | Current Version | Previous Version | Graphics & Text | Print | Product List | Glossary On
Versions: 1 2 3 4 5 6 7 8 9 10 11 12 13 14 15 16 17 18 19 20 21 22 23 24 25 26 27 28 29 30 31 32 33 34 35 36 37 38 39 40 41 42 43 44 45 46 47 48 49 50
000
ASUS43 KMPX 050701
RWRMN
WEATHER ROUNDUP FOR MINNESOTA
NATIONAL WEATHER SERVICE TWIN CITIES/CHANHASSEN MN
100 AM CST MON DEC 05 2016


NOTE: "FAIR" INDICATES FEW OR NO CLOUDS BELOW 12,000 FEET WITH NO
SIGNIFICANT WEATHER AND/OR OBSTRUCTIONS TO VISIBILITY. N/A MEANS
CURRENT SKY AND/OR WEATHER CONDITIONS ARE NOT AVAILABLE.

MNZ060>063-068>070-050800-
   Twin Cities Metro

CITY           SKY/WX    TMP DP  RH WIND       PRES   REMARKS
TWIN CITIES    CLEAR     31  28  89 SW5       29.80R WCI  26
ST PAUL        CLEAR     32  30  92 SE3       29.81R
CRYSTAL        CLEAR     30  25  81 S6        29.78R WCI  24
BLAINE         CLEAR     34  30  86 SW7       29.77S WCI  28
LAKEVILLE      CLEAR     28  28 100 CALM      29.80S
EDEN PRAIRIE   CLEAR     30  27  88 SW5       29.78R WCI  25
SOUTH ST PAUL  CLEAR     31  30  95 CALM      29.80R
LAKE ELMO      FAIR      32  30  93 SW8       29.80R WCI  25
$$
MNZ001>005-007-008-013>017-022>024-027-028-050800-
   Northwest Minnesota

CITY           SKY/WX    TMP DP  RH WIND       PRES   REMARKS
BEMIDJI        CLOUDY    27  26  94 W8        29.67R WCI  19
HALLOCK        CLOUDY    30  28  93 W7        29.67R WCI  23
ROSEAU         CLOUDY    30  27  86 W7        29.64R WCI  23
WARROAD        CLOUDY    30  27  86 W9        29.63R WCI  22
THIEF RVR FALL CLOUDY    28  26  92 SW9       29.69R WCI  19
CROOKSTON      CLOUDY    28  27  93 W6        29.70S WCI  22
FOSSTON        CLOUDY    27  25  93 SW9       29.69R WCI  17
DETROIT LAKES  PTCLDY    28  28 100 W3        29.71R
MOORHEAD       CLEAR     27  25  93 SW3       29.73S
PARK RAPIDS    CLOUDY    31  25  78 W12       29.68R WCI  22
$$
MNZ006-009>011-018-025>026-050800-
   North Central Minnesota

CITY           SKY/WX    TMP DP  RH WIND       PRES   REMARKS
BAUDETTE       CLOUDY    30  27  88 W7        29.62R WCI  23
FLAG ISLAND    CLOUDY    30  28  93 SW9       29.59R FOG     WCI  22
INTL FALLS     CLOUDY    30  27  88 W8        29.62R FOG     WCI  22
WASKISH        CLOUDY    30  28  93 W14G20    29.65R WCI  20
BIG FORK       CLOUDY    30  28  93 SW5       29.64S WCI  25
LONGVILLE      CLOUDY    30  27  86 W5        29.68R WCI  25
GRAND RAPIDS   CLOUDY    30  28  92 W6        29.69R WCI  24
CRANE LAKE     FLURRIES  28  28 100 CALM      29.65R
ORR            MIX PCPN  28  27  93 CALM      29.61R
COOK           CLOUDY    28  27  93 W3        29.64S
$$
MNZ012-019>021-037-050800-
   Northeast Minnesota

CITY           SKY/WX    TMP DP  RH WIND       PRES   REMARKS
DULUTH         FLURRIES  32  29  88 W14       29.66R WCI  22
ELY            LGT SNOW  30  30 100 W7        29.61S WCI  23
HIBBING        CLOUDY    29  28  96 W6        29.65R FOG     WCI  23
EVELETH        CLOUDY    32  31  94 W6        29.65R WCI  27
DULUTH HARBOR  CLOUDY    36  30  80 SW10      29.70S
TWO HARBORS    PTCLDY    34  28  80 W7        29.64R WCI  28
SILVER BAY     MIX PCPN  34  32  93 SW3       29.62R
GRAND MARAIS     N/A     33  33 100 CALM      29.64S
G MARAIS ARPRT FLURRIES  28  25  86 CALM      29.59S
$$
MNZ029>031-032-039>041-046>048-054>057-064-050800-
   West Central Minnesota

CITY           SKY/WX    TMP DP  RH WIND       PRES   REMARKS
FERGUS FALLS   CLEAR     27  27 100 S3        29.77R
MORRIS         CLEAR     28  27  93 S6        29.74R WCI  22
ALEXANDRIA     CLEAR     27  26  96 SW7       29.74R WCI  19
ELBOW LAKE     FAIR      25  24  99 CALM      29.74R
WADENA         CLEAR     27  25  93 SW8       29.70R WCI  18
GLENWOOD       CLEAR     27  25  93 SW5       29.75R WCI  21
APPLETON       CLEAR     27  27 100 S3        29.75S
BENSON         CLEAR     27  25  93 S3        29.76R
ORTONVILLE     PTCLDY    28  27  93 CALM      29.74S
MADISON        CLEAR     34  30  86 CALM      29.75S
WILLMAR        FAIR      30  30 100 CALM      29.78R
$$
MNZ033>034-036-042>043-049>051-058-059-050800-
   Central Minnesota

CITY           SKY/WX    TMP DP  RH WIND       PRES   REMARKS
ST CLOUD       CLEAR     28  27  96 S9        29.76R WCI  19
PAYNESVILLE    CLEAR     30  30 100 CALM      29.77R
AITKIN         CLOUDY    36  27  69 SW5       29.69R
PINE RIVER     CLOUDY    30  28  93 CALM      29.73R
BRAINERD       CLEAR     29  27  92 SW7       29.71R WCI  22
STAPLES        CLEAR     27  27 100 SW5       29.71R WCI  21
LONG PRAIRIE   FAIR      28  27  93 S6        29.73S WCI  22
LITTLE FALLS   PTCLDY    28  27  93 S3        29.74R
LITCHFIELD     CLEAR     30  28  93 CALM      29.77S
BUFFALO        CLEAR     31  29  91 S5        29.79R WCI  26
MAPLE LAKE     CLEAR     32  31  95 SW6       29.78R WCI  26
$$
MNZ037-044-045-052-053-050800-
   East Central Minnesota

CITY           SKY/WX    TMP DP  RH WIND       PRES   REMARKS
PRINCETON      CLEAR     30  28  93 S3        29.76R
MORA           PTCLDY    32  28  86 SW3       29.75R
CAMBRIDGE      CLEAR     34  28  80 S5        29.75R WCI  30
RUSH CITY      CLEAR     32  30  93 SW6       29.76R WCI  26
MOOSE LAKE     CLOUDY    34  28  80 W8        29.69S WCI  27
HINCKLEY       CLOUDY    34  32  93 SW7       29.73S WCI  28
CLOQUET        CLOUDY    32  28  86 W7        29.67S WCI  26
MCGREGOR       CLOUDY    32  28  86 W6        29.70S WCI  26
$$
MNZ071>073-080-081-089-090-097-098-050800-
   Southwest Minnesota

CITY           SKY/WX    TMP DP  RH WIND       PRES   REMARKS
MONTEVIDEO     CLEAR     28  27  93 SW3       29.77S
GRANITE FALLS  CLEAR     30  29  93 S6        29.78R WCI  24
CANBY          PTCLDY    36  30  78 CALM      29.75F
MARSHALL       PTCLDY    35  28  75 SW10      29.77S WCI  27
REDWOOD FALLS  CLEAR     30  26  85 SW8       29.78R WCI  22
OLIVIA         CLEAR     30  28  93 S5        29.77S WCI  25
PIPESTONE      CLOUDY    34  30  86 SE5       29.74F WCI  30
WINDOM         CLEAR     30  28  93 CALM      29.78F
WORTHINGTON    CLEAR     32  30  92 S8        29.77F WCI  25
JACKSON        PTCLDY    30  28  93 S7        29.79F WCI  23
TRACY          PTCLDY    35  31  86 SW10      29.77S WCI  27
SLAYTON        CLOUDY    32  29  90 SW9       29.78F WCI  24
$$
MNZ065>067-074>077-082>085-091>093-050800-
   South Central Minnesota

CITY           SKY/WX    TMP DP  RH WIND       PRES   REMARKS
MANKATO        CLEAR     31  30  96 S7        29.81S WCI  24
NEW ULM        CLEAR     30  28  93 S7        29.79S WCI  23
ST JAMES       CLEAR     30  30 100 S6        29.81S WCI  24
FAIRMONT       CLEAR     31  29  92 SW8       29.81S WCI  23
GLENCOE        CLEAR     33  32  99 SW3       29.77F
FARIBAULT      CLEAR     30  30 100 S6        29.81S WCI  24
OWATONNA       CLEAR     32  28  86 SW7       29.81S WCI  26
WASECA         CLEAR     32  30  93 SW7       29.82S WCI  26
ALBERT LEA     CLEAR     36  36 100 SW5       29.82S
$$
MNZ078>079-086>088-094>096-050800-
   Southeast Minnesota

CITY           SKY/WX    TMP DP  RH WIND       PRES   REMARKS
ROCHESTER      CLOUDY    32  32 100 SW14      29.82R FOG     WCI  22
RED WING       CLEAR     30  28  93 CALM      29.81R
STANTON        CLEAR     30  28  92 CALM      29.80R
DODGE CENTER   PTCLDY    28  28 100 SW9       29.81R FOG     WCI  20
WINONA         CLEAR     34  32  93 SW5       29.84R WCI  30
PRESTON        CLOUDY    32  31  96 SW10      29.84R FOG     WCI  24
$$
ABBREVIATIONS USED IN REMARKS
   TC - TEMPERATURES IN CELSIUS
  WCI - WIND CHILL INDEX
   HX - HEAT INDEX
  VSB - VISIBILITY
$$



USA.gov is the U.S. government's official web portal to all federal, state and local government web resources and services.